User: anonymous   Login
Location: Unspecified
(0.0000°N, 0.0000°E)
Time: 08:53:38
(UTC+00:00)
Language:

TBA - TO BE ASSIGNED - Orbit

View from above orbital plane
View from above orbital plane
View from above satellite
View from above satellite

Ground track
Ground track

The orbit is defined by the following mean orbital elements,

1 69025U          26145.53444691 +.00000000 +00000-0 +75190-3 0 00004
2 69025  97.2848   0.2905 0001033  82.9140 277.2243 15.75218329    09
Epoch (UTC): 25 May 2026 12:49:36
Eccentricity: 0.0001033
inclination: 97.2848°
perigee height: 343 km
apogee height: 345 km
right ascension of ascending node: 0.2905°
argument of perigee: 82.9140°
revolutions per day: 15.75218329
mean anomaly at epoch: 277.2243°

The dashed part of the orbit path shows where the satellite is in the earth's shadow,  

DLR